This is the latest recevied weather packets stored in our database for station/object KD4EED. If no packets are shown the sender has not sent any weather packets the latest 10 day(s).
| Time | Temp. | Humidity | Pressure | Rain* | Wind** | Luminosity | Snow |
|---|---|---|---|---|---|---|---|
| 1777928545 | 21.11° C | 53% | 1013.6 hPa | - | - | 533 W/m² | - |
| 1777928242 | 21.11° C | 52% | 1013.6 hPa | - | - | 805 W/m² | - |
| 1777927940 | 21.11° C | 54% | 1013.4 hPa | - | - | 513 W/m² | - |
| 1777927638 | 20.56° C | 53% | 1013.5 hPa | - | - | 451 W/m² | - |
| 1777927336 | 21.11° C | 51% | 1013.4 hPa | - | - | 454 W/m² | - |
| 1777927035 | 21.11° C | 49% | 1013.3 hPa | - | - | 472 W/m² | - |
| 1777926732 | 21.67° C | 50% | 1013.4 hPa | - | - | 612 W/m² | - |
| 1777926432 | 21.67° C | 48% | 1013.1 hPa | - | - | 964 W/m² | - |
| 1777926129 | 21.67° C | 50% | 1013.1 hPa | - | - | 843 W/m² | - |
| 1777925826 | 21.11° C | 49% | 1013.1 hPa | - | - | 1016 W/m² | - |
| 1777925524 | 21.67° C | 48% | 1013.1 hPa | - | - | 696 W/m² | - |
| 1777925221 | 21.67° C | 50% | 1013.3 hPa | - | - | 634 W/m² | - |
| 1777924917 | 21.11° C | 47% | 1013 hPa | - | - | 770 W/m² | - |
| 1777924613 | 21.11° C | 49% | 1013.3 hPa | - | - | 798 W/m² | - |
| 1777924309 | 21.11° C | 49% | 1013.3 hPa | - | - | 885 W/m² | - |
| 1777924006 | 21.11° C | 50% | 1013.3 hPa | - | - | 866 W/m² | - |
| 1777923702 | 21.67° C | 50% | 1013.5 hPa | - | - | 851 W/m² | - |
| 1777923399 | 21.11° C | 51% | 1013.3 hPa | - | - | 853 W/m² | - |
| 1777923097 | 21.11° C | 52% | 1013.5 hPa | - | - | 856 W/m² | - |
| 1777922795 | 20.56° C | 53% | 1013.5 hPa | - | - | 878 W/m² | - |
| 1777922493 | 20.56° C | 50% | 1013.6 hPa | - | - | 430 W/m² | - |
| 1777922191 | 21.11° C | 50% | 1013.4 hPa | - | - | 619 W/m² | - |
| 1777921887 | 21.67° C | 49% | 1013.4 hPa | - | - | 518 W/m² | - |
| 1777921583 | 21.11° C | 51% | 1013.4 hPa | - | - | 782 W/m² | - |
| 1777921280 | 21.11° C | 51% | 1013.5 hPa | - | - | 893 W/m² | - |
* Rain since midnight (hover to see other rain measurements)
** Current wind speed in m/s (hover to see current wind gust speed)